Volver al catálogo

CZ-6A DEB

ActivoSSO
NORAD 55892·DEBRIS·🇨🇳 China

Lanzado Nov 11, 2022 desde Taiyuan Satellite Launch Center

Loading…

Próximos Pases (próximas 24 horas)

TLE

EnvejeciendoSource: Space-Track

Época: Sep 3, 2026, 20:59 UTC

1 55892U 22151AAQ 26246.87499672  .00001046  00000-0  69108-3 0  9990
2 55892  98.8593 212.2072 0126018 217.5829 141.6479 14.00008549188685

Sigue CZ-6A DEB en tiempo real con AllMySat

Download on the App Store